Cloud_Cover
3 2 5 57 100 91 36 4 0 0 0 0 0 2 5 97 44 12 32 5 5 5 8 5 2 0 0 0 0 0 0 0 0 0 0 4 0 0 0 2 0 0 0
4 5 6 97 100 100 100 5 0 0 0 5 5 49 31 2 5 5 9 6 5 0 0 0 0 0 0 0 0 0 0 0 0 0 0 0 0 0 0 0 0 0 0
3 2 5 85 100 100 100 5 5 0 5 5 5 22 13 9 6 5 5 1 3 4 2 2 0 0 0 0 0 0 0 0 0 0 0 0 0 0 0 0 0 0 0
60 5 5 66 100 100 100 12 4 5 16 4 1 5 84 62 2 3 2 5 8 17 5 9 5 5 4 0 0 0 0 0 0 0 0 0 0 0 0 0 0 0 0
5 2 17 100 99 100 100 66 5 1 2 5 5 5 22 5 5 5 8 62 70 83 83 28 8 9 5 3 0 0 0 0 0 0 0 0 2 0 0 0 3 5 1
0 6 62 22 60 42 100 92 1 0 1 5 5 5 5 5 9 99 100 99 100 100 98 86 50 41 5 5 5 0 0 0 0 0 92 0 0 0 0 0 5 5 3
5 98 98 55 64 38 100 22 5 3 5 5 4 0 5 99 19 67 83 70 23 22 44 5 31 23 5 5 5 3 0 0 0 1 0 0 0 0 0 0 5 6 5
27 100 100 100 100 88 100 91 30 5 9 21 2 1 5 2 4 10 9 12 12 47 23 5 6 15 5 5 5 5 4 0 3 2 0 0 0 0 5 2 19 70 8
23 100 100 100 100 99 100 100 100 100 14 6 21 9 5 5 5 14 32 28 7 80 94 6 82 51 13 14 5 3 5 0 18 19 5 4 0 0 2 9 70 57 53
78 92 100 100 100 100 100 100 100 100 59 100 29 5 21 21 48 5 11 14 57 100 100 100 100 100 100 100 99 5 0 0 0 1 0 4 5 3 9 5 77 100 100
100 100 100 100 100 100 100 100 100 100 100 100 78 27 5 66 96 96 64 94 8 62 99 35 17 53 100 70 5 5 4 19 0 4 19 1 5 5 4 29 6 31 90
100 100 100 100 100 100 100 100 100 100 44 6 9 21 5 6 35 91 6 6 15 90 100 100 100 8 5 5 5 6 3 5 1 3 5 5 5 4 2 4 23 4 5
100 100 100 100 100 100 100 100 100 100 38 6 6 56 18 88 47 19 39 77 61 100 100 60 9 37 16 5 5 5 5 3 5 5 5 10 5 0 0 0 0 11 84
98 100 92 100 100 98 100 100 100 100 96 99 100 100 100 100 87 98 92 61 12 8 31 6 6 10 33 59 8 5 5 2 5 35 18 6 0 3 4 7 8 5 6
100 100 89 67 26 78 59 100 100 100 100 100 100 100 100 89 95 21 5 5 5 8 8 21 11 5 24 9 5 18 5 4 5 6 100 100 99 100 100 100 100 100 77
91 100 15 48 62 80 92 100 100 100 100 100 100 100 100 100 78 100 100 62 67 36 5 7 37 28 30 33 63 25 4 2 3 6 90 99 98 51 59 94 88 79 86
63 100 18 59 100 48 42 33 40 6 100 100 100 100 100 100 100 87 77 18 6 5 27 30 100 100 100 99 95 99 13 10 4 28 19 39 97 95 44 32 41 100 100
75 98 39 23 38 100 53 54 13 37 77 100 100 100 100 100 100 100 100 100 78 100 100 100 100 100 100 100 85 21 9 3 10 26 7 81 100 100 97 2 14 95 100
76 63 48 8 5 83 100 33 4 75 100 100 100 100 100 100 100 100 100 100 100 100 100 100 100 100 100 64 89 14 5 4 3 13 17 94 45 44 64 6 5 8 72
66 100 38 8 2 91 100 64 100 100 100 100 100 100 100 100 100 100 100 100 100 100 100 100 100 100 100 59 85 11 6 5 83 96 63 5 5 5 5 5 8 22 48
35 94 100 93 8 64 81 23 5 81 100 100 100 100 100 100 100 100 100 100 100 100 100 100 100 100 100 97 63 33 5 98 99 5 44 10 5 5 14 93 54 96 7
100 96 41 5 38 44 11 5 14 14 82 100 97 100 100 100 100 100 100 100 100 100 100 100 100 100 96 27 10 5 5 23 71 81 87 30 5 9 10 5 6 68 44
100 98 98 100 100 72 11 64 14 47 53 53 28 47 94 71 92 100 83 100 97 99 100 100 100 52 76 77 74 100 100 100 100 100 59 6 4 17 5 43 64 5 6
100 100 100 100 85 88 67 66 28 94 79 93 84 100 97 98 34 64 98 100 100 100 100 100 93 90 92 63 74 100 100 100 24 95 51 5 5 5 5 5 7 4 5
78 100 100 100 100 45 100 64 97 98 54 100 100 100 100 100 100 100 100 100 100 100 100 100 100 99 99 100 100 100 100 100 75 7 32 63 34 21 5 54 8 96 12
100 100 100 100 100 100 100 100 100 100 100 100 100 100 100 100 91 100 99 67 99 100 99 100 100 100 100 100 99 100 100 100 92 96 100 99 43 52 26 76 100 100 100